Regional Weather Roundup
Issued by NWS

Home | Current Version | Previous Version | Graphics & Text | Print | Product List | Glossary On
Versions: 1 2 3 4 5 6 7 8 9 10 11 12 13 14 15 16 17 18 19 20 21 22 23 24 25 26 27 28 29 30 31 32 33 34 35 36 37 38 39 40 41 42 43 44 45 46 47 48 49 50
000
ASUS43 KIND 032359
RWRIN

WEATHER ROUNDUP FOR INDIANA
NATIONAL WEATHER SERVICE INDIANAPOLIS IN
800 PM EDT THU SEP 03 2015

NOTE: "FAIR" INDICATES FEW OR NO CLOUDS BELOW 12,000 FEET WITH NO
SIGNIFICANT WEATHER AND/OR OBSTRUCTIONS TO VISIBILITY.

* - STATION DOES NOT REPORT WEATHER SUCH AS PRECIPITATION OR FOG.

+ - STATION NOT QUALITY CONTROLLED BY THE NATIONAL WEATHER SERVICE.
    USE DATA WITH CAUTION...ESPECIALLY DEWPOINT AND RELATIVE
    HUMIDITY OBSERVATIONS.

INZ001>003-010>013-019-020-040100-
NORTHWEST INDIANA

CITY           SKY/WX    TMP DP  RH WIND       PRES   REMARKS
GARY /AIRPORT/ MOCLDY    88  64  45 SW8       29.89S
RENSSELAER +   CLEAR     82  70  65 W3        29.91S

$$

LMZ046-743>745-040100-
SOUTHERN LAKE MICHIGAN

STATION/POSITION TIME  TEMP    WIND        PRES    WAVE
                       AIR SEA DIR/SP/G            HT
                 (UTC) (F)     (DEG/KT/KT) (MB)    (FT)
BURNS HARBOR     2300   83     260/ 10/ 13 1012.2S
MICHIGAN CITY    2300   83     210/  9/  9   N/A
5NW MICH CITY    2300   80 76  250/  4/  6   N/A     0

$$

INZ004-005-014>016-021>024-040100-
NORTH CENTRAL INDIANA

CITY           SKY/WX    TMP DP  RH WIND       PRES   REMARKS
ELKHART        CLEAR     82  70  65 SW6       29.90S
GOSHEN         CLEAR     83  69  62 W7        29.90S
6HR MIN TEMP:  83; 6HR MAX TEMP:  90;

SOUTH BEND     PTCLDY    84  69  60 SW6       29.90S
6HR MIN TEMP:  83; 6HR MAX TEMP:  90;


$$

INZ006>009-017-018-025>027-040100-
NORTHEAST INDIANA

CITY           SKY/WX    TMP DP  RH WIND       PRES   REMARKS
ANGOLA *+      CLEAR     84  72  65 SW3       29.91S
FORT WAYNE     PTCLDY    82  68  62 SW6       29.93R
6HR MIN TEMP:  82; 6HR MAX TEMP:  90;


$$

INZ028-029-035-036-043>045-051>053-040100-
WEST CENTRAL INDIANA

CITY           SKY/WX    TMP DP  RH WIND       PRES   REMARKS
CRAWFORDSVL +  CLEAR     80  64  56 CALM      29.93S
6HR MIN TEMP:  80; 6HR MAX TEMP:  88;

GREENCASTLE +  CLEAR     79  64  61 CALM      29.94S
LAFAYETTE      CLEAR     83  68  60 CALM      29.91R
6HR MIN TEMP:  83; 6HR MAX TEMP:  92;

TERRE HAUTE    CLEAR     85  66  53 W3        29.93R
6HR MIN TEMP:  85; 6HR MAX TEMP:  92;


$$

INZ030>032-037>040-046>048-054>057-064-065-040100-
CENTRAL INDIANA

CITY           SKY/WX    TMP DP  RH WIND       PRES   REMARKS
FRANKFORT +    CLEAR     82  71  68 SW3       29.95S
6HR MIN TEMP:  82; 6HR MAX TEMP:  91;

GREENWOOD *+   CLEAR     82  63  51 SW5       29.95S
INDIANAPOLIS   PTCLDY    84  65  52 SW8       29.93S
6HR MIN TEMP:  84; 6HR MAX TEMP:  91;

-EAGLE CREEK   CLEAR     85  66  53 SW5       29.93S
6HR MIN TEMP:  85; 6HR MAX TEMP:  90;

KOKOMO *+      CLEAR     84  66  54 W6        29.93R
6HR MIN TEMP:  84; 6HR MAX TEMP:  91;

MT COMFORT *+  CLEAR     82  59  44 SW5       29.94S
SHELBYVILLE    CLEAR     84  67  56 SW3       29.94R
6HR MIN TEMP:  84; 6HR MAX TEMP:  92;


$$

INZ033-034-041-042-049-050-058-059-040100-
EAST CENTRAL INDIANA

CITY           SKY/WX    TMP DP  RH WIND       PRES   REMARKS
MUNCIE         CLEAR     80  68  66 W5        29.94S
6HR MIN TEMP:  80; 6HR MAX TEMP:  88;


$$

INZ060-061-067>069-081>083-085>088-040100-
SOUTHWEST INDIANA

CITY           SKY/WX    TMP DP  RH WIND       PRES   REMARKS
EVANSVILLE     CLEAR     87  67  51 CALM      29.93S
6HR MIN TEMP:  87; 6HR MAX TEMP:  93;

HUNTINGBURG *+ CLEAR     84  68  58 W3        29.94S
6HR MIN TEMP:  84; 6HR MAX TEMP:  93;


$$

INZ062-063-066-070>080-084-089>092-040100-
SOUTH CENTRAL AND SOUTHEAST INDIANA

CITY           SKY/WX    TMP DP  RH WIND       PRES   REMARKS
BLOOMINGTON    CLEAR     80  72  76 SW3       29.95S
6HR MIN TEMP:  80; 6HR MAX TEMP:  91;

MADISON *+     CLEAR     79  70  73 CALM      29.97S
SEYMOUR +      CLEAR     86  66  51 CALM      29.94R

$$




USA.gov is the U.S. government's official web portal to all federal, state and local government web resources and services.